Regional Weather Roundup
Issued by NWS

Home | Current Version | Previous Version | Text Only | Print | Product List | Glossary Off
Versions: 1 2 3 4 5 6 7 8 9 10 11 12 13 14 15 16 17 18 19 20 21 22 23 24 25 26 27 28 29 30 31 32 33 34 35 36 37 38 39 40 41 42 43 44 45 46 47 48 49 50

111
ASUS45 KSLC 170710
RWRUT

UTAH REGIONAL WEATHER ROUNDUP
NATIONAL WEATHER SERVICE SALT LAKE CITY UT
1200 AM MST TUE JAN 17 2017

UTZ001>011-023>025-170800-

NORTHERN UTAH

CITY           SKY/WX    TMP DP  RH WIND       PRES   REMARKS
BRIGHAM CITY     N/A     10   6  82 CALM      30.31F
HILL AFB       CLEAR     15   6  70 E17       30.28R WCI  -2
LOGAN          CLEAR      0  -2  91 S3        30.32F FOG
OGDEN          PTCLDY    13   7  77 S6        30.29R WCI   4
SALT LAKE CITY PTCLDY    22  17  81 CALM      30.30S
TOOELE VALLEY  PTCLDY    19  19 100 SW5       30.31R WCI  13
WENDOVER       CLOUDY    25  19  80 E7        30.31R WCI  17
HEBER CITY     PTCLDY    -8 -11  84 CALM      30.24S
WEST JORDAN    PTCLDY    22  21  97 CALM      30.29S

$$

UTZ011>015-024>027-170800-

CENTRAL/NORTHEAST UTAH

CITY           SKY/WX    TMP DP  RH WIND       PRES   REMARKS
PROVO AIRPORT  MOCLDY    21  15  78 N3        30.29F
MOAB/CANYONLAN CLEAR     32  24  72 CALM      30.12R
DELTA          CLEAR     19  19 100 N3        30.25F
PRICE          PTCLDY    21   7  54 SW5       30.11S WCI  15
RICHFIELD      PTCLDY    23  21  93 N3        30.26S
ROOSEVELT      CLOUDY     5   1  85 CALM      30.24S
VERNAL         CLOUDY    13   9  84 W3        30.22S

$$

UTZ013>016-019>022-027-170800-

SOUTHERN UTAH

CITY           SKY/WX    TMP DP  RH WIND       PRES   REMARKS
BRYCE CANYON   PTCLDY    10   7  87 NW9       30.13F WCI  -3
CEDAR CITY     CLEAR     19  15  84 N3        30.19S
MILFORD        CLEAR     21  17  84 NW8       30.24S WCI  11
ST GEORGE      MOSUNNY   36  21  55 NE7       30.19S WCI  30
HANKSVILLE     CLEAR     30  27  86 MISG      30.16S
KANAB          CLEAR     32  25  74 NE5       30.17S WCI  27
BLANDING       CLOUDY    33  29  86 E3        30.17S

$$

REGIONAL REPORTS     COLORADO/ARIZONA

CITY           SKY/WX    TMP DP  RH WIND       PRES   REMARKS
CRAIG, CO      CLOUDY    16  13  88 SW5       30.19S WCI   9
GRAND JUNCTION CLOUDY    29  21  72 CALM      30.13S
RIFLE, CO      CLOUDY    22  17  81 CALM      30.15S
MONTROSE, CO   CLOUDY    30  25  81 SE7       30.15S WCI  23
CORTEZ, CO     CLOUDY    34  33  96 CALM      30.09S
COLORADO CITY    N/A     27  25  93 CALM      30.15S
PAGE, AZ       CLEAR     38  28  67 SE3       30.10S
GRAND CANYON   CLEAR     24  23  96 CALM      30.10F
KINGMAN, AZ    CLEAR     36  21  54 E10       30.10S WCI  28
FLAGSTAFF, AZ  CLOUDY    27  26  96 CALM      30.08S

$$

REGIONAL REPORTS    NEVADA/IDAHO/WYOMING

CITY           SKY/WX    TMP DP  RH WIND       PRES   REMARKS
LAS VEGAS, NV  CLEAR     46  21  37 NE7       30.12S
ELY, NY        PTCLDY    -1  -4  87 S13       30.23S WCI -19
ELKO, NV       CLOUDY    18  14  84 NE3       30.29F
POCATELLO, ID  CLOUDY    -2  -6  83 CALM      30.32R
BURLEY, ID     PTCLDY     8   2  76 NE10      30.29S WCI  -6
FORT BRIDGER,    N/A      8   4  84 W14       30.18S WCI  -8
EVANSTON, WY   CLOUDY     5  -1  76 S5        30.16S WCI  -4
ROCK SPRINGS,  CLOUDY    -2  -7  79 SW5       30.16S HAZE    WCI -12

$$




USA.gov is the U.S. government's official web portal to all federal, state and local government web resources and services.